User: anonymous   Login
Location: Mount Tamalpais State Park
(37.9108°N, 122.6128°W)
Time: 12:33:53
(UTC-08:00)
Language:

Cosmos 1814 Rocket - Orbit

View from above orbital plane
View from above orbital plane
View from above satellite
View from above satellite

Ground track
Ground track

The orbit data is extracted from the following two-line orbital elements,

1 17304U 87006B   17349.78707684 -.00000006 +00000-0 +68446-5 0  9997
2 17304 074.0588 116.8834 0030904 270.3424 089.4188 14.37618288619178
Epoch (UTC): 15 December 2017 18:53:23
Eccentricity: 0.0030904
inclination: 74.0588°
perigee height: 744 km
apogee height: 788 km
right ascension of ascending node: 116.8834°
argument of perigee: 270.3424°
revolutions per day: 14.37618288
mean anomaly at epoch: 89.4188°
orbit number at epoch: 61917

The dashed part of the orbit path shows where the satellite is in the earth's shadow,  

DLR